Location: Unspecified
(0.0000°N, 0.0000°E)
Time: 04:41:31
(UTC+00:00)

deb Delta 104 - Pass Details

Date: 06 March 2026
Orbit: 1430 x 1579 km, 102.3° (Epoch: 17 April)

Event Time Altitude Azimuth Distance (km) Brightness Sun altitude
Rises 05:03:27 0° 14° (NNE) 4,748 ? -16.9°
Reaches altitude 10° 05:06:18 10° 14° (NNE) 3,770 ? -16.2°
Maximum altitude 05:15:14 82° 287° (WNW) 1,589 ? -14.0°
Drops below altitude 10° 05:24:07 10° 199° (SSW) 3,745 ? -11.7°
Sets 05:26:57 0° 198° (SSW) 4,716 ? -11.0°
